Hourly Weather Zomin

Today, 6 August, Thursday

Time Temperature Precipitation Wind Pressure Humidity
00:00 +28°C° 0 mm 2 mps 699 mmHg 29%
01:00 +27°C° 0 mm 2 mps 698 mmHg 30%
02:00 +27°C° 0 mm 3 mps 698 mmHg 31%
03:00 +26°C° 0 mm 2 mps 698 mmHg 32%
04:00 +26°C° 0 mm 2 mps 698 mmHg 34%
05:00 +25°C° 0 mm 2 mps 698 mmHg 35%
06:00 +26°C° 0 mm 2 mps 699 mmHg 34%
07:00 +27°C° 0 mm 3 mps 699 mmHg 33%
08:00 +28°C° 0 mm 3 mps 700 mmHg 32%
09:00 +29°C° 0 mm 3 mps 700 mmHg 30%
10:00 +30°C° 0 mm 3 mps 700 mmHg 28%
11:00 +33°C° 0 mm 3 mps 700 mmHg 26%
12:00 +34°C° 0 mm 3 mps 700 mmHg 24%
13:00 +35°C° 0 mm 2 mps 699 mmHg 22%
14:00 +36°C° 0 mm 2 mps 699 mmHg 20%
15:00 +37°C° 0 mm 2 mps 699 mmHg 19%
16:00 +37°C° 0 mm 2 mps 699 mmHg 19%
17:00 +38°C° 0 mm 2 mps 699 mmHg 18%
18:00 +36°C° 0 mm 2 mps 699 mmHg 20%
19:00 +33°C° 0 mm 1 mps 699 mmHg 23%
20:00 +31°C° 0 mm 1 mps 699 mmHg 26%
21:00 +30°C° 0 mm 1 mps 699 mmHg 27%
22:00 +29°C° 0 mm 1 mps 699 mmHg 27%
23:00 +28°C° 0 mm 1 mps 698 mmHg 28%

Tomorrow, 7 August, Friday

Time Temperature Precipitation Wind Pressure Humidity
00:00 +28°C° 0 mm 1 mps 698 mmHg 29%
01:00 +27°C° 0 mm 1 mps 698 mmHg 30%
02:00 +27°C° 0 mm 1 mps 698 mmHg 31%
03:00 +26°C° 0 mm 1 mps 698 mmHg 31%
04:00 +25°C° 0 mm 1 mps 698 mmHg 32%
05:00 +24°C° 0 mm 1 mps 698 mmHg 33%
06:00 +26°C° 0 mm 1 mps 699 mmHg 29%
07:00 +28°C° 0 mm 2 mps 699 mmHg 25%
08:00 +30°C° 0 mm 2 mps 700 mmHg 21%
09:00 +31°C° 0 mm 2 mps 700 mmHg 20%
10:00 +32°C° 0 mm 2 mps 700 mmHg 18%
11:00 +35°C° 0 mm 2 mps 700 mmHg 16%
12:00 +36°C° 0 mm 2 mps 700 mmHg 16%
13:00 +37°C° 0 mm 2 mps 700 mmHg 15%
14:00 +38°C° 0 mm 2 mps 699 mmHg 14%
15:00 +39°C° 0 mm 2 mps 699 mmHg 14%
16:00 +39°C° 0 mm 2 mps 699 mmHg 14%
17:00 +39°C° 0 mm 2 mps 699 mmHg 14%
18:00 +37°C° 0 mm 2 mps 699 mmHg 17%
19:00 +35°C° 0 mm 2 mps 699 mmHg 19%
20:00 +32°C° 0 mm 1 mps 698 mmHg 22%
21:00 +30°C° 0 mm 1 mps 698 mmHg 24%
22:00 +29°C° 0 mm 1 mps 698 mmHg 25%
23:00 +28°C° 0 mm 1 mps 698 mmHg 27%

Day after tomorrow, 8 August, Saturday

Time Temperature Precipitation Wind Pressure Humidity
00:00 +28°C° 0 mm 1 mps 698 mmHg 28%
01:00 +27°C° 0 mm 1 mps 698 mmHg 29%
02:00 +26°C° 0 mm 2 mps 697 mmHg 29%
03:00 +26°C° 0 mm 2 mps 697 mmHg 30%
04:00 +26°C° 0 mm 1 mps 697 mmHg 31%
05:00 +25°C° 0 mm 1 mps 697 mmHg 32%
06:00 +27°C° 0 mm 2 mps 697 mmHg 29%
07:00 +28°C° 0 mm 2 mps 698 mmHg 26%
08:00 +30°C° 0 mm 3 mps 698 mmHg 24%
09:00 +31°C° 0 mm 3 mps 698 mmHg 22%
10:00 +33°C° 0 mm 3 mps 698 mmHg 21%
11:00 +34°C° 0 mm 3 mps 698 mmHg 20%
12:00 +35°C° 0 mm 3 mps 698 mmHg 18%
13:00 +37°C° 0 mm 3 mps 698 mmHg 17%
14:00 +38°C° 0 mm 3 mps 698 mmHg 16%
15:00 +38°C° 0 mm 3 mps 698 mmHg 16%
16:00 +38°C° 0 mm 3 mps 697 mmHg 16%
17:00 +38°C° 0 mm 3 mps 697 mmHg 16%
18:00 +36°C° 0 mm 3 mps 697 mmHg 18%
19:00 +34°C° 0 mm 2 mps 697 mmHg 20%
20:00 +31°C° 0 mm 2 mps 697 mmHg 23%
21:00 +30°C° 0 mm 2 mps 697 mmHg 25%
22:00 +29°C° 0 mm 1 mps 697 mmHg 26%
23:00 +28°C° 0 mm 1 mps 697 mmHg 28%

9 August, Sunday

Time Temperature Precipitation Wind Pressure Humidity
00:00 +28°C° 0 mm 1 mps 697 mmHg 29%
01:00 +27°C° 0 mm 2 mps 696 mmHg 30%
02:00 +26°C° 0 mm 2 mps 696 mmHg 32%
03:00 +26°C° 0 mm 2 mps 696 mmHg 32%
04:00 +25°C° 0 mm 2 mps 696 mmHg 32%
05:00 +25°C° 0 mm 2 mps 696 mmHg 33%
06:00 +27°C° 0 mm 2 mps 697 mmHg 31%
07:00 +28°C° 0 mm 2 mps 697 mmHg 29%
08:00 +29°C° 0 mm 2 mps 698 mmHg 26%
09:00 +31°C° 0 mm 2 mps 698 mmHg 25%
10:00 +32°C° 0 mm 2 mps 698 mmHg 23%
11:00 +34°C° 0 mm 2 mps 697 mmHg 21%
12:00 +35°C° 0 mm 2 mps 697 mmHg 20%
13:00 +36°C° 0 mm 2 mps 697 mmHg 19%
14:00 +37°C° 0 mm 2 mps 697 mmHg 18%
15:00 +37°C° 0 mm 2 mps 697 mmHg 18%
16:00 +38°C° 0 mm 2 mps 697 mmHg 17%
17:00 +38°C° 0 mm 2 mps 697 mmHg 17%
18:00 +36°C° 0 mm 2 mps 697 mmHg 19%
19:00 +33°C° 0 mm 1 mps 697 mmHg 21%
20:00 +31°C° 0 mm 1 mps 697 mmHg 24%
21:00 +30°C° 0 mm 1 mps 697 mmHg 25%
22:00 +29°C° 0 mm 1 mps 697 mmHg 27%
23:00 +28°C° 0 mm 1 mps 697 mmHg 29%

10 August, Monday

Time Temperature Precipitation Wind Pressure Humidity
00:00 +28°C° 0 mm 1 mps 697 mmHg 30%
01:00 +27°C° 0 mm 1 mps 696 mmHg 30%
02:00 +27°C° 0 mm 1 mps 696 mmHg 31%
03:00 +26°C° 0 mm 1 mps 696 mmHg 32%
04:00 +26°C° 0 mm 1 mps 696 mmHg 32%
05:00 +25°C° 0 mm 1 mps 696 mmHg 33%
06:00 +27°C° 0 mm 1 mps 696 mmHg 30%
07:00 +29°C° 0 mm 2 mps 697 mmHg 26%
08:00 +31°C° 0 mm 2 mps 697 mmHg 23%
09:00 +34°C° 0 mm 2 mps 697 mmHg 21%
10:00 +35°C° 0 mm 2 mps 697 mmHg 19%
11:00 +36°C° 0 mm 2 mps 697 mmHg 18%
12:00 +37°C° 0 mm 3 mps 697 mmHg 17%
13:00 +38°C° 0 mm 3 mps 697 mmHg 16%
14:00 +39°C° 0 mm 3 mps 697 mmHg 15%
15:00 +39°C° 0 mm 3 mps 697 mmHg 14%
16:00 +40°C° 0 mm 4 mps 696 mmHg 14%
17:00 +41°C° 0 mm 4 mps 696 mmHg 14%
18:00 +38°C° 0 mm 4 mps 696 mmHg 14%
19:00 +36°C° 0 mm 4 mps 696 mmHg 15%
20:00 +34°C° 0 mm 4 mps 696 mmHg 16%
21:00 +33°C° 0 mm 3 mps 697 mmHg 18%
22:00 +30°C° 0 mm 3 mps 697 mmHg 20%
23:00 +29°C° 0 mm 2 mps 697 mmHg 21%

11 August, Tuesday

Time Temperature Precipitation Wind Pressure Humidity
00:00 +28°C° 0 mm 2 mps 697 mmHg 24%
01:00 +27°C° 0 mm 2 mps 697 mmHg 27%
02:00 +26°C° 0 mm 1 mps 696 mmHg 30%
03:00 +25°C° 0 mm 1 mps 696 mmHg 32%
04:00 +24°C° 0 mm 1 mps 696 mmHg 34%
05:00 +24°C° 0 mm 1 mps 696 mmHg 36%
06:00 +25°C° 0 mm 1 mps 697 mmHg 33%
07:00 +27°C° 0 mm 1 mps 697 mmHg 30%
08:00 +28°C° 0 mm 1 mps 698 mmHg 27%
09:00 +30°C° 0 mm 1 mps 698 mmHg 24%
10:00 +31°C° 0 mm 2 mps 698 mmHg 22%
11:00 +34°C° 0 mm 2 mps 698 mmHg 20%
12:00 +35°C° 0 mm 3 mps 698 mmHg 18%
13:00 +37°C° 0 mm 3 mps 698 mmHg 17%
14:00 +38°C° 0 mm 4 mps 698 mmHg 15%
15:00 +39°C° 0 mm 5 mps 698 mmHg 14%
16:00 +39°C° 0 mm 6 mps 697 mmHg 13%
17:00 +39°C° 0 mm 7 mps 697 mmHg 12%
18:00 +36°C° 0 mm 6 mps 697 mmHg 15%
19:00 +33°C° 0 mm 4 mps 697 mmHg 17%
20:00 +29°C° 0 mm 3 mps 697 mmHg 20%
21:00 +29°C° 0 mm 3 mps 697 mmHg 20%
22:00 +28°C° 0 mm 2 mps 697 mmHg 20%
23:00 +27°C° 0 mm 2 mps 698 mmHg 20%
Show more